Regional Weather Roundup
Issued by NWS

Home | Current Version | Previous Version | Text Only | Print | Product List | Glossary Off
Versions: 1 2 3 4 5 6 7 8 9 10 11 12 13 14 15 16 17 18 19 20 21 22 23 24 25 26 27 28 29 30 31 32 33 34 35 36 37 38 39 40 41 42 43 44 45 46 47 48 49 50

000
ASUS44 KMEG 280510
RWRTN
TENNESSEE HOURLY STATE WEATHER ROUNDUP
NATIONAL WEATHER SERVICE MEMPHIS TN
1200 AM CDT TUE JUL 28 2015

TNZ002-004-019-021-049-052-054-088>092-280600-
WEST TENNESSEE

CITY           SKY/WX    TMP DP  RH WIND       PRES   REMARKS
MEMPHIS INTL   PTCLDY    85  75  72 S5        29.96F HX  93
NWS MEMPHIS      N/A     82 N/A N/A MISG        N/A
JACKSON        CLEAR     79  76  90 S3        29.97S FOG
DYERSBURG        N/A    N/A N/A N/A MISG        N/A
PARIS          CLEAR     73  73 100 CALM      29.98S
LEXINGTON      PTCLDY    79  75  89 CALM      29.97F
$$

TNZ008-025-027-028-033-062-065-066-280600-
NORTH MIDDLE TENNESSEE

CITY           SKY/WX    TMP DP  RH WIND       PRES   REMARKS
NASHVILLE      MOCLDY    81  76  84 CALM      29.98F
CLARKSVILLE    CLOUDY    78  73  84 CALM      29.97F
SMYRNA         MOCLDY    80  78  94 E3        29.99F
COOKEVILLE     CLEAR     75  75 100 CALM      30.01F
CROSSVILLE     MOCLDY    75  71  87 CALM      30.08F
$$

TNZ061-075-076-078-094-096-097-280600-
SOUTH MIDDLE TENNESSEE

CITY           SKY/WX    TMP DP  RH WIND       PRES   REMARKS
FAYETTEVILLE   CLEAR     79  72  78 CALM      30.02S
TULLAHOMA      CLEAR     75  73  94 CALM      30.03F
WINCHESTER     CLEAR     75  72  88 S3        30.02F
MCMINNVILLE    CLEAR     75  75 100 CALM      30.02F
COLUMBIA       CLEAR     79  79 100 S3        29.98F
SHELBYVILLE    CLEAR     79  77  94 E3        30.01F
$$

TNZ017-018-042-046-047-280600-
NORTHEAST TENNESSEE

CITY           SKY/WX    TMP DP  RH WIND       PRES   REMARKS
TRI CITIES     MOCLDY    71  70  96 CALM      30.06S FOG
ELIZABETHTON   MOCLDY    70  68  94 CALM      30.07S
$$

TNZ012-013-036-069-073-074-280600-
CENTRAL EAST TENNESSEE

CITY           SKY/WX    TMP DP  RH WIND       PRES   REMARKS
KNOXVILLE      MOCLDY    79  72  79 N5        30.02S
OAK RIDGE      MOCLDY    77  72  84 E3        30.04S
GATLINBURG     CLEAR     77  72  83 CALM      30.02F
MORRISTOWN       N/A     73  70  88 SE3       30.05F
$$

TNZ083-085-099-280600-
SOUTHEAST TENNESSEE

CITY           SKY/WX    TMP DP  RH WIND       PRES   REMARKS
CHATTANOOGA    PTCLDY    80  75  84 CALM      30.01S
$$

SKY/WX REPORTED AS FAIR MEANS FEW OR NO CLOUDS BELOW
12 THOUSAND FEET.




USA.gov is the U.S. government's official web portal to all federal, state and local government web resources and services.